Location: Maccacari
(45.1333°N, 11.1333°E)
Time: 02:04:13
(UTC+00:00)

A-11 Canister half - Pass Details

Date: 25 January 2021
Orbit: 1525 x 1684 km, 47.3° (Epoch: 05 March)

Event Time Altitude Azimuth Distance (km) Brightness Sun altitude
Rises 20:19:50 0° 293° (WNW) 4,773 12.4 -43.1°
Reaches altitude 10° 20:23:10 10° 286° (WNW) 3,809 11.7 -43.6°
Enters shadow 20:31:06 37° 232° (SW) 2,334 9.9 -45.0°
